TimeMST,TemperatureF,Dew PointF,Humidity,Sea Level PressureIn,VisibilityMPH,Wind Direction,Wind SpeedMPH,Gust SpeedMPH,PrecipitationIn,Events,Conditions,WindDirDegrees,DateUTC
12:00 AM,15.8,12.2,86,29.97,6.0,NNW,4.6,-,0.00,Snow,Light Snow,340,2012-12-11 07:00:00
12:53 AM,16.0,12.9,88,30.12,7.0,NW,3.5,-,0.00,,Overcast,310,2012-12-11 07:53:00
1:53 AM,16.0,14.0,92,30.09,7.0,Calm,Calm,-,0.00,,Overcast,0,2012-12-11 08:53:00
2:53 AM,17.1,14.0,88,30.08,10.0,Calm,Calm,-,N/A,,Overcast,0,2012-12-11 09:53:00
3:53 AM,15.1,12.0,88,30.06,10.0,Calm,Calm,-,N/A,,Overcast,0,2012-12-11 10:53:00
4:53 AM,10.9,9.0,92,30.09,10.0,West,3.5,-,N/A,,Overcast,260,2012-12-11 11:53:00
5:53 AM,8.1,5.0,87,30.08,10.0,SSW,3.5,-,N/A,,Partly Cloudy,200,2012-12-11 12:53:00
6:05 AM,8.6,6.8,92,29.87,9.0,Calm,Calm,-,N/A,,Scattered Clouds,0,2012-12-11 13:05:00
6:14 AM,6.8,5.0,92,29.87,8.0,Calm,Calm,-,N/A,,Mostly Cloudy,0,2012-12-11 13:14:00
6:23 AM,6.8,5.0,92,29.87,1.8,Calm,Calm,-,N/A,,Overcast,0,2012-12-11 13:23:00
6:30 AM,8.6,6.8,92,29.87,0.8,WNW,3.5,-,N/A,,Overcast,290,2012-12-11 13:30:00
6:53 AM,10.9,8.1,88,30.05,0.8,Calm,Calm,-,N/A,,Mist,0,2012-12-11 13:53:00
7:53 AM,10.9,9.0,92,30.04,0.2,Calm,Calm,-,N/A,Fog,Light Freezing Fog,0,2012-12-11 14:53:00
8:53 AM,10.0,8.1,92,30.03,0.2,South,3.5,-,N/A,Fog,Light Freezing Fog,190,2012-12-11 15:53:00
9:51 AM,12.2,10.4,92,29.81,1.2,Calm,Calm,-,N/A,,Overcast,0,2012-12-11 16:51:00
9:53 AM,12.0,10.0,92,29.99,1.8,Calm,Calm,-,N/A,,Overcast,0,2012-12-11 16:53:00
9:58 AM,12.2,10.4,92,29.81,3.0,Calm,Calm,-,N/A,,Mostly Cloudy,0,2012-12-11 16:58:00
10:09 AM,12.2,10.4,92,29.81,4.0,Calm,Calm,-,N/A,,Scattered Clouds,0,2012-12-11 17:09:00
10:53 AM,15.1,12.0,88,29.96,7.0,NNW,3.5,-,N/A,,Scattered Clouds,340,2012-12-11 17:53:00
11:53 AM,19.0,14.0,81,29.92,10.0,Calm,Calm,-,N/A,,Clear,0,2012-12-11 18:53:00
12:53 PM,21.0,16.0,81,29.87,10.0,ESE,4.6,-,N/A,,Clear,110,2012-12-11 19:53:00
1:53 PM,21.9,17.1,82,29.84,10.0,South,3.5,-,N/A,,Clear,170,2012-12-11 20:53:00
2:53 PM,23.0,17.1,78,29.82,10.0,Calm,Calm,-,N/A,,Clear,0,2012-12-11 21:53:00
3:53 PM,19.9,15.1,81,29.81,10.0,East,8.1,-,N/A,,Clear,100,2012-12-11 22:53:00
4:53 PM,19.0,16.0,88,29.83,10.0,WNW,3.5,-,N/A,,Clear,290,2012-12-11 23:53:00
5:53 PM,19.9,15.1,81,29.84,10.0,North,5.8,-,N/A,,Clear,10,2012-12-12 00:53:00
6:53 PM,19.9,16.0,85,29.82,10.0,Calm,Calm,-,N/A,,Clear,0,2012-12-12 01:53:00
7:53 PM,21.0,17.1,85,29.80,10.0,North,3.5,-,N/A,,Overcast,10,2012-12-12 02:53:00
8:53 PM,21.9,17.1,82,29.80,10.0,NW,3.5,-,N/A,,Overcast,320,2012-12-12 03:53:00
9:53 PM,21.9,18.0,85,29.78,10.0,Calm,Calm,-,N/A,,Partly Cloudy,0,2012-12-12 04:53:00
10:53 PM,21.0,18.0,88,29.76,10.0,Calm,Calm,-,N/A,,Mostly Cloudy,0,2012-12-12 05:53:00
11:53 PM,21.9,18.0,85,29.75,10.0,Calm,Calm,-,N/A,,Mostly Cloudy,0,2012-12-12 06:53:00